Location: ČR
(50.0000°N, 15.0000°E)
Time: 19:42:28
(UTC+00:00)

Vanguard 3 - Pass Details

Date: 24 October 2021
Orbit: 508 x 3260 km, 33.4° (Epoch: 04 December)

Event Time Altitude Azimuth Distance (km) Brightness Sun altitude
Rises 22:19:29 0° 259° (W) 5,345 11.3 -51.7°
Enters shadow 22:20:35 - 256° (WSW) 5,232 11.2 -51.8°
Reaches altitude 10° 22:25:56 10° 235° (SW) 4,967 - -51.9°
Maximum altitude 22:31:10 13° 214° (SSW) 5,151 - -52.0°
Drops below altitude 10° 22:37:08 10° 193° (SSW) 5,761 - -52.1°
Sets 22:46:29 0° 171° (S) 7,141 - -52.1°
